Regional Weather Roundup
Issued by NWS

Home | Current Version | Previous Version | Graphics & Text | Print | Product List | Glossary On
Versions: 1 2 3 4 5 6 7 8 9 10 11 12 13 14 15 16 17 18 19 20 21 22 23 24 25 26 27 28 29 30 31 32 33 34 35 36 37 38 39 40 41 42 43 44 45 46 47 48 49 50
000
ASUS45 KBOU 050107
RWRCO

WEATHER ROUNDUP FOR COLORADO
NATIONAL WEATHER SERVICE DENVER/BOULDER CO
600 PM MST WED MAR 04 2015

NOTE: "FAIR" INDICATES FEW OR NO CLOUDS BELOW 12000 FEET WITH NO
SIGNIFICANT WEATHER AND/OR OBSTRUCTIONS TO VISIBILITY.

COZ001>005-013-030-031-050200-
...NORTHWEST COLORADO...

CITY           SKY/WX    TMP DP  RH WIND       PRES   REMARKS
CRAIG          CLEAR     19   6  57 CALM      30.17R
HAYDEN         CLEAR     16   3  57 W5        30.16R WCI   9
MEEKER         CLEAR     24   6  46 NE9       30.15R WCI  14
MOUNT WERNER   NOT AVBL
STEAMBOAT SPGS CLEAR     16  -1  47 W7        30.15R WCI   6
WALDEN         CLEAR      7   0  72 CALM      30.05R
$$

COZ006>008-011-050200-
...WEST CENTRAL VALLEYS...

CITY           SKY/WX    TMP DP  RH WIND       PRES   REMARKS
GRAND JUNCTION CLEAR     37  12  35 N9        30.14R
MONTROSE       CLEAR     33  16  49 NW14      30.16R WCI  23
EAGLE          PTCLDY    25   1  36 NW12      30.15R WCI  14
RIFLE          PTCLDY    31   5  33 N9        30.17R WCI  23
DELTA          PTCLDY    37  15  41 NE5       30.16R
NUCLA          CLEAR     34  14  44 NW8       30.17R WCI  27
$$

COZ017>023-064>068-050200-
...SOUTHWEST COLORADO...

CITY           SKY/WX    TMP DP  RH WIND       PRES   REMARKS
DURANGO        CLEAR     33   7  33 N14       30.02R WCI  23
CORTEZ         CLEAR     34  16  47 NW15      30.11R WCI  24
PAGOSA SPRINGS CLEAR     30  -8  19 NE3       30.00R
TELLURIDE      CLEAR     19   2  49 N3        30.09R
WOLF CREEK PAS   N/A      1   0  92 MISG      29.96R
$$

COZ009-010-012-014-032>034-037-058>063-050200-
...CENTRAL COLORADO...

CITY           SKY/WX    TMP DP  RH WIND       PRES   REMARKS
ASPEN          PTCLDY    19   2  47 NW10      30.09R WCI   7
BUENA VISTA    PTCLDY    19   2  47 NW13      30.01R WCI   6
COPPER MTN     NOT AVBL
BERTHOUD PASS  FAIR      -8 -15  71 NW32G44   29.82R WCI -37
COTTONWOOD PAS PTCLDY    16  -6  38 W21G40    29.95R WCI  -2
GUNNISON       CLEAR     21   1  42 W15       30.09R WCI   8
KREMMLING      CLEAR     18   0  45 NW14      30.12R WCI   4
LEADVILLE      CLOUDY     7  -6  55 N17G24    29.97R WCI -12
SALIDA         PTCLDY    24   0  34 W8        30.09R WCI  16
SUNLIGHT       PTCLDY     7   1  78 W8          N/A  WCI  -6
WILKERSON PASS CLEAR      3  -6  66 NW13G26   29.91R WCI -14
$$

COZ069>075-050200-
...SAN LUIS VALLEY/SANGRE DE CRISTO MOUNTAINS...

CITY           SKY/WX    TMP DP  RH WIND       PRES   REMARKS
ALAMOSA        PTCLDY    27   5  39 N23G37    29.98R WCI  12
LA VETA PASS   PTCLDY     5   1  85 MISG      29.93R
SAGUACHE       PTCLDY    23   5  46 N18G24    30.01R WCI   9
$$

COZ035-036-038>040-050200-
...NORTHERN COLORADO FRONT RANGE...

CITY           SKY/WX    TMP DP  RH WIND       PRES   REMARKS
DENVER INTL AP PTCLDY    12   4  70 S7        30.15R WCI   1
DMNS CITY PARK   N/A     15   7  69 E1        30.17R
AURORA         PTCLDY    12   5  73 SE6       30.16R WCI   2
FRONT RANGE AP PTCLDY    18   9  68 SW5       30.16  WCI  11
ERIE MUNI ARPT CLEAR     14   8  78 CALM      30.18R
BOULDER MUN AP CLEAR     16  12  86 S3        30.16R
CENTENNIAL     PTCLDY    14   5  67 S3        30.14R
BROOMFIELD     MOCLDY    16  12  86 CALM      30.14R
FORT COLLINS   CLEAR     14   3  62 S10       30.17R WCI   1
LONGMONT       CLEAR     17   9  72 SW3       30.20R
$$

COZ041-046-047-076>085-087-088-050200-
...PIKES PEAK/PALMER DIVIDE AND SOUTHERN FOOTHILLS...

CITY           SKY/WX    TMP DP  RH WIND       PRES   REMARKS
COLO. SPRINGS  MOCLDY    11   8  88 SE3       30.14R FOG
A. F. ACADEMY  LGT SNOW  10   6  84 S6        30.11R FOG     WCI   1
ELLICOTT       NOT AVBL
FALCON         LGT SNOW   8   5  91 SW5       30.11R WCI  -1
FORT CARSON    SNOW      13  11  90 SE8       30.15R VSB 1/2 WCI   2
LIMON          CLEAR      4  -2  76 N3        30.17R
MONUMENT HILL  FLURRIES   5   3  92 CALM      30.07R
TRINIDAD       LGT SNOW  16  12  84 E5        30.16R VSB 3/4 WCI   9
$$

COZ042>045-048>051-090-091-050200-
...NORTHEAST COLORADO...

CITY           SKY/WX    TMP DP  RH WIND       PRES   REMARKS
GREELEY ARPT   CLEAR     19   3  49 SW9       30.17R WCI   9
AKRON          CLEAR     19   9  65 SW12      30.17R WCI   7
BURLINGTON     CLEAR     22   5  48 CALM      30.22R
WRAY           PTCLDY    22   9  56 W5        30.22R WCI  16
STERLING       CLEAR     23  12  63 W9        30.18R WCI  13
HOLYOKE        NOT AVBL
FORT MORGAN    CLEAR     20   9  62 SW9       30.19R WCI   9
$$

COZ086-089-092>099-050200-
...SOUTHEAST COLORADO...

CITY           SKY/WX    TMP DP  RH WIND       PRES   REMARKS
PUEBLO         CLOUDY    18  12  77 SE9       30.22R WCI   7
LA JUNTA       PTCLDY    19  11  70 NW3       30.26R
LAMAR          PTCLDY    21  14  74 W7        30.26R WCI  12
SPRINGFIELD      N/A     18  15  88 N5        30.22R WCI  11
$$



USA.gov is the U.S. government's official web portal to all federal, state and local government web resources and services.